www.pogodaiklimat.ru

Погода и климат >> Архив погоды >> Индонезия >> Танджунгкаранг


ПОГОДА в Танджунгкаранге

  • Прогноз погоды в Танджунгкаранге
  • Монитор погоды в Танджунгкаранге

АРХИВ ПОГОДЫ в Танджунгкаранге

Время (UTC), дата Ветер
(напр.,м/с)
 
Видим.   Явления Облачность Т
(С)
Тd
(С)
f
(%)
Тe
(С)
Тes
(С)
Комфортность P
(гПа)
Po
(гПа)
Тmin
(С)
Tmax
(С)
R
(мм)
R24
(мм)
S
(см)
18 14.09 ЮЗ 2 10 км 4/0
[Ci fib]
+21.7 +18.5 82 +26 +26 душно 1012.6 1002.3
21 14.09 ЮЗ 2 10 км 4/0
[Ci fib]
+21.7 +18.5 82 +26 +26 душно 1011.5 1001.2
00 15.09 ЮЗ 1 5000 м мгла 4/0
[Ci fib]
+21.5 +18.5 83 +26 +28 душно 1012.5 1002.1 +21.4
03 15.09 ЮВ 3 10 км 8/3 <50 м
[Cu med, cong As op Ci fib]
+29.2 +17.7 50 +34 +40 очень
душно
1012.9 1002.5
06 15.09 ЮВ 4 10 км 8/4 <50 м
[Cu med, cong Ci fib]
+32.4 +18.9 45 +38 +45 очень
душно
1010.0 999.6
09 15.09 В 6 10 км 6/3 <50 м
[Cu med, cong Ci fib]
+32.9 +17.1 39 +36 +38 очень
душно
1008.2 997.8
12 15.09 ЮВ 5 10 км 9/3 450 м
[Sc As op Ci fib]
+28.0 +20.8 65 +35 +35 очень
душно
1010.6 1000.2 +33.0
15 15.09 штиль 0 7000 м 4/0
[Ci fib]
+26.0 +20.8 73 +33 +33 очень
душно
1012.0 1001.6
18 15.09 штиль 0 7000 м 5/1 450 м
[Sc As op Ci fib]
+24.0 +20.3 80 +30 +30 очень
душно
1011.1 1000.7
21 15.09 штиль 0 6000 м 4/0
[Ci fib]
+22.8 +19.8 83 +29 +29 очень
душно
1010.6 1000.2
00 16.09 ЮЗ 2 4000 м мгла 4/1 600 м
[Sc Ac trans Ci fib]
+22.6 +19.9 85 +29 +30 очень
душно
1011.7 1001.3 +21.0
03 16.09 В 3 10 км 8/5 <50 м
[Cu med, cong Ac trans Ci fib]
+30.0 +20.3 56 +37 +41 очень
душно
1012.5 1002.1
06 16.09 СВ 5 10 км 8/5 <50 м
[Cu med, cong Ci fib]
+32.9 +17.9 41 +37 +42 очень
душно
1009.4 999.0
09 16.09 В 6 10 км 8/5 <50 м
[Cu med, cong As op Ci fib]
+32.1 +18.7 45 +37 +38 очень
душно
1007.7 997.3
12 16.09 В 4 10 км 8/3 <50 м
[Cu med, cong As op Ci fib]
+27.8 +21.6 69 +36 +36 очень
душно
1010.0 999.7 +33.8
15 16.09 ЮВ 3 10 км 6/3 <50 м
[Cu med, cong As op Ci fib]
+26.6 +22.4 78 +35 +35 очень
душно
1012.0 1001.6
18 16.09 штиль 0 7000 м 5/1 450 м
[Sc As op Ci fib]
+24.0 +20.3 80 +30 +30 очень
душно
1011.0 1000.6
21 16.09 штиль 0 6000 м 4/0
[Ci fib]
+22.8 +19.8 83 +29 +29 очень
душно
1011.4 1001.0
00 17.09 З 2 4000 м мгла 4/1 450 м
[Sc Ci fib]
+23.4 +21.3 88 +31 +33 очень
душно
1013.1 1002.8 +22.6
03 17.09 В 5 10 км 5/3 <50 м
[Cu med, cong As op Ci fib]
+30.4 +20.3 55 +37 +42 очень
душно
1013.7 1003.4
06 17.09 В 7 10 км 8/4 <50 м
[Cu med, cong As op Ci fib]
+32.8 +19.6 46 +39 +41 очень
душно
1010.4 1000.0
09 17.09 В 5 10 км 5/3 <50 м
[Cu med, cong Ci fib]
+32.6 +19.8 47 +39 +40 очень
душно
1009.2 998.8
12 17.09 В 4 7000 м 4/0
[Ci fib]
+28.3 +22.1 69 +37 +37 очень
душно
1011.5 1001.1 +34.3
15 17.09 Ю 2 6000 м 4/0
[Ci fib]
+26.4 +22.5 79 +35 +35 очень
душно
1013.4 1003.0
18 17.09 ЮВ 1 5000 м мгла 4/0
[Ci fib]
+25.6 +22.5 83 +34 +34 очень
душно
1012.5 1002.1
21 17.09 штиль 0 3000 м дымка 6/4 450 м
[Sc As op Ci fib]
+24.4 +22.1 87 +32 +32 очень
душно
1012.6 1002.2
00 18.09 штиль 0 2000 м дымка 4/0
[Ci fib]
+24.3 +21.8 86 +31 +33 очень
душно
1013.9 1003.4 +24.0
03 18.09 С 2 10 км 8/5 <50 м
[Cu med, cong As op Ci fib]
+31.0 +21.5 57 +39 +45 очень
душно
1013.8 1003.4
06 18.09 В 4 10 км 8/5 <50 м
[Cu med, cong As op Ci fib]
+34.1 +20.8 46 +41 +46 опасность
перегрева
1010.8 1000.5
09 18.09 В 7 10 км 6/3 <50 м
[Cu med, cong As op Ci fib]
+33.6 +22.4 52 +43 +44 опасность
перегрева
1009.6 999.3
12 18.09 ЮВ 5 8000 м 4/1 <50 м
[Cu med, cong Ci fib]
+28.9 +23.6 73 +39 +39 очень
душно
1012.0 1001.6 +35.4
15 18.09 ЮВ 5 8000 м 4/0
[Ci fib]
+27.2 +22.2 74 +35 +35 очень
душно
1013.2 1002.8
18 18.09 штиль 0 8000 м 4/0
[Ac trans Ci fib]
+26.0 +21.9 78 +33 +33 очень
душно
1011.9 1001.5
21 18.09 штиль 0 5000 м мгла 8/5 450 м
[Sc As op Ci fib]
+24.0 +21.9 88 +31 +31 очень
душно
1012.0 1001.6
00 19.09 ЮЗ 2 3000 м мгла 10/5 420 м
[Sc As op]
+24.7 +21.8 84 +32 +32 очень
душно
1013.5 1003.1 +23.8
03 19.09 ЮВ 2 8000 м 10/5 <50 м
[Cu med, cong As op Ci fib]
+30.7 +21.8 59 +39 +44 очень
душно
1013.5 1003.0
06 19.09 В 3 8000 м 8/4 <50 м
[Cu med, cong As op Ci fib]
+34.4 +21.4 47 +42 +50 опасность
перегрева
1010.2 999.8
09 19.09 ЮВ 7 8000 м 5/4 <50 м
[Cu med, cong As op Ci fib]
+32.8 +22.3 54 +42 +43 опасность
перегрева
1009.4 999.0
12 19.09 ЮВ 5 8000 м 4/1 450 м
[Sc Ci fib]
+28.3 +22.5 71 +37 +37 очень
душно
1011.3 1001.0 +34.8
15 19.09 ЮВ 3 8000 м 5/3 450 м
[Sc As op Ci fib]
+27.0 +22.4 76 +35 +35 очень
душно
1012.7 1002.4
18 19.09 Ю 2 10 км 5/3 450 м
[Sc As op Ci fib]
+26.2 +21.8 77 +34 +34 очень
душно
1011.6 1001.3
21 19.09 штиль 0 5000 м мгла 8/5 450 м
[Sc As op Ci fib]
+24.0 +21.9 88 +31 +31 очень
душно
1011.2 1000.8
00 20.09 ЮЗ 1 2000 м дымка 6/1 450 м
[Sc As op Ci fib]
+23.4 +21.1 87 +31 +33 очень
душно
1012.7 1002.4 +23.0
03 20.09 В 4 8000 м 8/5 <50 м
[Cu med, cong As op Ci fib]
+30.1 +21.5 60 +38 +42 очень
душно
1013.3 1002.9
06 20.09 В 5 10 км 8/5 <50 м
[Cu med, cong As op Ci fib]
+34.2 +19.1 41 +39 +43 очень
душно
1010.4 1000.0
09 20.09 В 6 10 км 6/4 <50 м
[Cu med, cong Ci fib]
+33.0 +19.1 44 +38 +39 очень
душно
1008.9 998.6
12 20.09 ЮВ 5 8000 м 5/0
[Ci fib]
+28.0 +21.8 69 +36 +36 очень
душно
1011.3 1000.9 +34.4
15 20.09 В 3 9000 м 4/0
[Ci fib]
+26.6 +21.1 72 +34 +34 очень
душно
1012.7 1002.3
18 20.09 ЮВ 3 10 км 4/0
[Ci fib]
+25.4 +21.3 78 +32 +32 очень
душно
1012.0 1001.6
21 20.09 Ю 1 6000 м 4/0
[Ci fib]
+23.6 +20.5 83 +29 +29 душно 1011.4 1001.0
00 21.09 ЮЗ 2 2000 м мгла 1/0
[Ci fib]
+22.6 +20.1 86 +29 +31 очень
душно
1013.0 1002.6 +22.5
03 21.09 ЮВ 3 10 км 8/5 <50 м
[Cu med, cong As op Ci fib]
+30.2 +20.4 56 +37 +42 очень
душно
1013.5 1003.1
06 21.09 В 5 10 км 6/4 <50 м
[Cu med, cong Ci fib]
+33.5 +19.9 45 +40 +46 очень
душно
1010.1 999.7
09 21.09 ЮВ 5 10 км 4/3 <50 м
[Cu med, cong As op Ci fib]
+31.4 +20.4 52 +38 +40 очень
душно
1008.8 998.5
12 21.09 Ю 4 10 км 6/4 450 м
[Sc As op Ci fib]
+28.0 +20.3 63 +34 +34 очень
душно
1010.3 1000.0 +34.2

 

Местоположение метеостанции Танджунгкаранг (Индонезия): широта -5.10 долгота 105.18 высота над уровнем моря 96 м.

В архиве по умолчанию представлена погода в Танджунгкаранге за последнюю неделю. Архивные данные за месяц целиком и за предыдущие месяцы, начиная с января 2011 года, Вы можете получить, выбрав интересующий диапазон дат из раскрывающегося списка и нажав кнопку "Ввод!".


*Определитесь, кто Вы:
робот инопланетянин человек

Внимание! Время в таблицах - всемирное. Для получения местного времени необходимо прибавить поправку, которая равна 7 ч.

Смотрите также архив погоды в соседних городах и на ближайших метеорологических станциях:

Погода в Серанге (Индонезия) (155 км)
Погода в Аэропорту Сукарно-Хатта (Индонезия) (198 км)
Погода в Чуруге (Индонезия) (206 км)
Погода в Джакарта порту (Индонезия) (218 км)
Погода в Джакарте (Индонезия) (219 км)
Погода в Палембанге (Индонезия) (250 км)
Погода в Цитеко (Индонезия) (263 км)
Погода в Бандунге (Индонезия) (333 км)
Погода в Панкалпинанге (Индонезия) (343 км)
Погода в Бенкулу (Индонезия) (344 км)

Пояснения к столбцам:

Ветер - указаны скорость ветра в м/с - средняя за 10 мин, порывы в срок и между сроками (в фигурных скобках) и направление, откуда дует ветер: С - северный, СВ - северо-восточный, В - восточный, ЮВ - юго-восточный, Ю - южный, ЮЗ - юго-западный, З - западный, СЗ - северо-западный.
Видимость - горизонтальная дальность видимости в метрах или километрах. При видимости от 1 до 10 км при отсутствии осадков обычно наблюдается дымка, при ухудшении видимости до 1 км и менее - туман. В сухую погоду видимость может ухудшаться дымом, пылью или мглою.
Явления - указаны атмосферные явления, наблюдавшиеся в срок или в последний час перед сроком; фигурными скобками обозначены явления, наблюдавшиеся между сроками (за 1-3 часа до срока); квадратными скобками обозначены град или гололедные отложения с указанием их диаметра в мм.
Облачность - указаны через наклонную черту общая и нижняя облачность в баллах и высота нижней границы облаков в метрах; квадратными скобками обозначены формы облаков: Ci - перистые, Cs - перисто-слоистые, Cc - перисто-кучевые, Ac - высококучевые, As - высокослоистые, Sc - слоисто-кучевые, Ns - слоисто-дождевые, Cu - кучевые, Cb - кучево-дождевые. Подробнее классификацию облаков см. в Атласе облаков (PDF).
T - Температура воздуха - температура, измеренная на высоте 2 м над землей.
Td - Температура точки росы - температура, при понижении до которой содержащийся в воздухе водяной пар достигнет насыщения.
f - Относительная влажность воздуха - влажноcть воздуха, измеренная на высоте 2 м над землей.
Te - Эффективная температура - температура, которую ощущает одетый по сезону человек в тени. Характеристика душности погоды. При расчете учитывается влияние влажности воздуха и скорости ветра на теплоощущения человека.
Tes - Эффективная температура на солнце - температура, которую ощущает человек, с поправкой на солнечный нагрев. Характеристика знойности погоды. Зависит от высоты солнца над горизонтом, облачности и скорости ветра. Ночью, в пасмурную погоду, а также при ветре 12 м/с и более поправка равна нулю.
P - Атмосферное давление - приведенное к уровню моря атмосферное давление.
Po - Атмосферное давление - измеренное на уровне метеостанции атмосферное давление.
Tmin - Минимальная температура - минимум температуры воздуха на высоте 2 м над землей.
Tmax - Максимальная температура - максимум температуры воздуха на высоте 2 м над землей.
R - Количество осадков - Количество выпавших осадков за период времени, мм. При наведении курсора мыши на число - период времени, за который выпало указанное количество осадков.
R24 - Количество осадков - Количество выпавших осадков за 24 часа, мм.
S - Снежный покров - Высота снежного покрова, см. При наведении курсора мыши на число - состояние снежного покрова и степень покрытия местности в баллах.